Tavèrnoles





Hora UTC 16:45
Temperatura 29.1 ºC
Humitat 48.0 %
Pressió 1015.7 hPa
Pluja 0.0 mm
Velocitat vent 8.0 km/h
Direcció vent S
Radiació solar 62.0 W/m²

Dades diàries 2020-07-05



Hora UTC (hivern +1h; estiu +2h)
Temperatura (ºC) Humitat (%) Pressió (hPa) Velocitat vent (km/h) Precipitació (mm) Radiació solar (W/m²)
Hora UTC Aire Humitat Pressió Vel. Dir. Vel. Max Dir. Intent. màx 5 min. Rad. Sol.
00:05 15.3 95.0 1020.8 0.0 SE 0.0 0.0 0.0
00:10 15.2 95.0 1020.8 0.0 SE 0.0 0.0 0.0
00:15 15.1 95.0 1020.6 0.0 SE 0.0 0.0 0.0
00:20 15.1 95.0 1020.6 0.0 SE 0.0 0.0 0.0
00:25 15.1 95.0 1020.6 0.0 SE 0.0 0.0 0.0
00:30 15.0 95.0 1020.5 0.0 SE 0.0 0.0 0.0
00:35 14.9 95.0 1020.5 0.0 SE 0.0 0.0 0.0
00:40 14.9 95.0 1020.3 0.0 SE 0.0 0.0 0.0
00:45 14.9 95.0 1020.3 0.0 SE 0.0 0.0 0.0
00:50 14.9 95.0 1020.4 0.0 SE 0.0 0.0 0.0
00:55 14.8 95.0 1020.3 0.0 SE 0.0 0.0 0.0
01:00 14.8 95.0 1020.3 0.0 SE 0.0 0.0 0.0
01:05 14.7 95.0 1020.2 0.0 SE 0.0 0.0 0.0
01:10 14.6 95.0 1020.2 0.0 SE 0.0 0.0 0.0
01:15 14.6 95.0 1020.1 0.0 SE 0.0 0.0 0.0
01:20 14.6 95.0 1020.1 0.0 SE 0.0 0.0 0.0
01:25 14.6 95.0 1020.0 0.0 SE 1.6 0.0 0.0
01:30 14.5 95.0 1020.0 0.0 SE 1.6 0.0 0.0
01:35 14.4 95.0 1020.0 0.0 SE 0.0 0.0 0.0
01:40 14.4 95.0 1019.9 0.0 SE 1.6 0.0 0.0
01:45 14.4 95.0 1019.7 0.0 SE 1.6 0.0 0.0
01:50 14.4 96.0 1019.7 0.0 SE 0.0 0.0 0.0
01:55 14.4 95.0 1019.7 0.0 SE 1.6 0.0 0.0
02:00 14.3 95.0 1019.7 0.0 SE 1.6 0.0 0.0
02:05 14.2 95.0 1019.6 0.0 SE 1.6 0.0 0.0
02:10 14.2 95.0 1019.6 0.0 SE 1.6 0.0 0.0
02:15 14.2 95.0 1019.6 0.0 SE 1.6 0.0 0.0
02:20 14.2 96.0 1019.5 0.0 SE 1.6 0.0 0.0
02:25 14.2 95.0 1019.5 0.0 SE 0.0 0.0 0.0
02:30 14.1 96.0 1019.6 0.0 SE 0.0 0.0 0.0
02:35 14.2 96.0 1019.4 0.0 SE 0.0 0.0 0.0
02:40 14.1 96.0 1019.4 0.0 SE 1.6 0.0 0.0
02:45 14.1 96.0 1019.4 0.0 SE 1.6 0.0 0.0
02:50 14.1 96.0 1019.4 0.0 SE 0.0 0.0 0.0
02:55 13.9 96.0 1019.4 1.6 SE 3.2 0.0 0.0
03:00 13.8 95.0 1019.4 0.0 SE 3.2 0.0 0.0
03:05 13.9 96.0 1019.5 0.0 SE 3.2 0.0 0.0
03:10 13.8 96.0 1019.5 0.0 SE 0.0 0.0 0.0
03:15 13.8 96.0 1019.5 0.0 SE 0.0 0.0 0.0
03:20 13.8 96.0 1019.6 0.0 SE 0.0 0.0 0.0
03:25 13.9 96.0 1019.6 0.0 SE 0.0 0.0 0.0
03:30 14.0 96.0 1019.5 0.0 SE 0.0 0.0 0.0
03:35 14.1 96.0 1019.5 0.0 SE 0.0 0.0 0.0
03:40 14.2 96.0 1019.6 0.0 SE 0.0 0.0 0.0
03:45 14.2 96.0 1019.6 0.0 SE 0.0 0.0 0.0
03:50 14.2 96.0 1019.6 0.0 SE 0.0 0.0 0.0
03:55 14.2 96.0 1019.6 0.0 SE 0.0 0.0 0.0
04:00 14.2 96.0 1019.7 0.0 SE 0.0 0.0 0.0
04:05 14.2 96.0 1019.6 0.0 SE 0.0 0.0 0.0
04:10 14.3 96.0 1019.7 0.0 SE 0.0 0.0 0.0
04:15 14.4 96.0 1019.7 0.0 SE 0.0 0.0 0.0
04:20 14.6 96.0 1019.6 0.0 SE 0.0 0.0 0.0
04:25 14.8 96.0 1019.7 0.0 SE 1.6 0.0 0.0
04:30 14.9 96.0 1019.7 0.0 SE 1.6 0.0 0.0
04:35 14.9 96.0 1019.7 0.0 SE 1.6 0.0 5.0
04:40 14.9 96.0 1019.6 0.0 SE 1.6 0.0 7.0
04:45 15.2 96.0 1019.7 0.0 SE 1.6 0.0 11.0
04:50 15.3 96.0 1019.7 0.0 SE 1.6 0.0 9.0
04:55 15.4 96.0 1019.7 0.0 SE 1.6 0.0 16.0
05:00 15.6 96.0 1019.7 0.0 SE 0.0 0.0 14.0
05:05 15.6 96.0 1019.7 0.0 SE 0.0 0.0 12.0
05:10 15.6 96.0 1019.8 0.0 SE 1.6 0.0 16.0
05:15 15.6 96.0 1019.9 0.0 SE 1.6 0.0 23.0
05:20 15.7 96.0 1019.9 0.0 SE 0.0 0.0 21.0
05:25 15.7 96.0 1019.8 0.0 SE 0.0 0.0 23.0
05:30 15.7 96.0 1019.9 0.0 SE 0.0 0.0 23.0
05:35 15.7 96.0 1019.9 0.0 SE 0.0 0.0 26.0
05:40 15.6 96.0 1019.8 0.0 SE 0.0 0.0 25.0
05:45 15.6 96.0 1019.9 0.0 SE 0.0 0.0 25.0
05:50 15.6 96.0 1019.9 0.0 SE 0.0 0.0 28.0
05:55 15.5 96.0 1019.8 0.0 SE 0.0 0.0 33.0
06:00 15.5 96.0 1019.9 0.0 SE 0.0 0.0 30.0
06:05 15.6 96.0 1020.0 0.0 SE 0.0 0.0 33.0
06:10 15.6 96.0 1020.0 0.0 SE 0.0 0.0 47.0
06:15 15.7 96.0 1020.0 0.0 SE 0.0 0.0 37.0
06:20 15.7 96.0 1020.0 0.0 SE 0.0 0.0 35.0
06:25 15.8 96.0 1020.1 0.0 SE 0.0 0.0 32.0
06:30 15.9 97.0 1020.1 0.0 SE 0.0 0.0 28.0
06:35 15.9 97.0 1020.0 0.0 SE 0.0 0.0 28.0
06:40 16.0 97.0 1020.1 0.0 SE 0.0 0.0 30.0
06:45 15.9 97.0 1020.1 0.0 SE 0.0 0.0 35.0
06:50 15.9 97.0 1020.1 0.0 SE 0.0 0.0 30.0
06:55 15.9 97.0 1020.2 0.0 SE 0.0 0.0 30.0
07:00 16.0 97.0 1020.1 0.0 SE 0.0 0.0 30.0
07:05 16.1 96.0 1020.1 0.0 SE 0.0 0.0 32.0
07:10 16.2 96.0 1020.2 0.0 SE 0.0 0.0 35.0
07:15 16.2 97.0 1020.2 0.0 SE 0.0 0.0 44.0
07:20 16.3 97.0 1020.2 0.0 SE 1.6 0.0 120.0
07:25 16.5 97.0 1020.3 0.0 SE 1.6 0.0 37.0
07:30 16.7 97.0 1020.4 0.0 NNE 3.2 0.0 35.0
07:35 16.9 97.0 1020.4 0.0 NNW 3.2 0.0 35.0
07:40 16.9 97.0 1020.5 0.0 NNW 3.2 0.0 35.0
07:45 17.1 97.0 1020.4 0.0 NNW 1.6 0.0 35.0
07:50 17.2 97.0 1020.5 0.0 NNW 0.0 0.0 35.0
07:55 17.4 97.0 1020.4 0.0 NNW 0.0 0.0 40.0
08:00 17.6 97.0 1020.4 0.0 ENE 3.2 0.0 37.0
08:05 17.8 97.0 1020.3 0.0 ENE 3.2 0.0 56.0
08:10 17.9 96.0 1020.3 0.0 ENE 0.0 0.0 44.0
08:15 18.1 96.0 1020.4 0.0 ENE 1.6 0.0 60.0
08:20 18.2 96.0 1020.3 0.0 ENE 1.6 0.0 44.0
08:25 18.5 96.0 1020.3 0.0 NE 0.0 0.0 499.0
08:30 18.8 95.0 1020.2 0.0 NE 0.0 0.0 345.0
08:35 19.2 95.0 1020.1 0.0 NE 0.0 0.0 65.0
08:40 19.4 93.0 1020.0 0.0 NE 0.0 0.0 49.0
08:45 19.7 91.0 1020.0 0.0 S 3.2 0.0 83.0
08:50 20.1 88.0 1019.9 1.6 ENE 3.2 0.0 128.0
08:55 20.6 87.0 1019.8 1.6 NNW 4.8 0.0 612.0
09:00 21.2 85.0 1019.7 3.2 N 4.8 0.0 635.0
09:05 21.7 83.0 1019.9 0.0 NNW 3.2 0.0 657.0
09:10 22.2 82.0 1019.8 0.0 NNW 3.2 0.0 679.0
09:15 22.6 79.0 1019.8 0.0 NNW 3.2 0.0 694.0
09:20 23.1 74.0 1019.8 0.0 NNW 3.2 0.0 640.0
09:25 23.6 75.0 1019.7 0.0 NNE 4.8 0.0 512.0
09:30 24.0 74.0 1019.8 0.0 NE 4.8 0.0 728.0
09:35 24.4 68.0 1019.7 0.0 NE 3.2 0.0 740.0
09:40 24.8 70.0 1019.7 1.6 NE 4.8 0.0 751.0
09:45 25.1 64.0 1019.7 0.0 ENE 4.8 0.0 758.0
09:50 25.3 61.0 1019.6 0.0 ENE 4.8 0.0 768.0
09:55 25.5 66.0 1019.6 0.0 E 3.2 0.0 773.0
10:00 25.8 61.0 1019.5 0.0 NE 1.6 0.0 782.0
10:05 26.2 58.0 1019.5 0.0 E 3.2 0.0 791.0
10:10 26.4 58.0 1019.5 0.0 NNW 3.2 0.0 796.0
10:15 26.4 54.0 1019.4 3.2 NNW 6.4 0.0 803.0
10:20 26.4 55.0 1019.4 0.0 N 6.4 0.0 810.0
10:25 26.5 57.0 1019.4 0.0 N 4.8 0.0 814.0
10:30 26.7 59.0 1019.4 0.0 NNE 4.8 0.0 821.0
10:35 26.7 57.0 1019.3 0.0 NNW 4.8 0.0 831.0
10:40 26.9 54.0 1019.2 8.0 S 9.7 0.0 835.0
10:45 27.1 59.0 1019.2 4.8 S 9.7 0.0 840.0
10:50 27.1 57.0 1019.2 0.0 SE 11.3 0.0 840.0
10:55 27.3 51.0 1019.1 0.0 S 11.3 0.0 849.0
11:00 27.4 54.0 1019.2 0.0 SW 11.3 0.0 851.0
11:05 27.8 56.0 1019.0 3.2 SSW 6.4 0.0 856.0
11:10 27.9 51.0 1018.9 0.0 SSW 6.4 0.0 861.0
11:15 28.1 53.0 1018.9 0.0 SSW 4.8 0.0 861.0
11:20 28.3 60.0 1018.8 1.6 S 4.8 0.0 865.0
11:25 28.4 52.0 1018.8 0.0 SW 8.0 0.0 870.0
11:30 28.3 55.0 1018.8 1.6 WSW 8.0 0.0 868.0
11:35 28.3 49.0 1018.7 0.0 NNW 3.2 0.0 874.0
11:40 28.3 51.0 1018.7 0.0 NW 8.0 0.0 870.0
11:45 28.5 52.0 1018.5 0.0 E 8.0 0.0 877.0
11:50 28.6 57.0 1018.5 0.0 WNW 9.7 0.0 870.0
11:55 28.6 50.0 1018.6 0.0 NNW 9.7 0.0 875.0
12:00 28.8 46.0 1018.4 3.2 NNW 6.4 0.0 875.0
12:05 28.7 54.0 1018.4 0.0 NNE 8.0 0.0 874.0
12:10 29.1 45.0 1018.3 3.2 SSW 8.0 0.0 882.0
12:15 29.3 49.0 1018.2 0.0 SSW 8.0 0.0 877.0
12:20 29.3 45.0 1018.2 0.0 S 8.0 0.0 874.0
12:25 29.3 40.0 1018.1 1.6 WSW 4.8 0.0 875.0
12:30 29.6 47.0 1018.1 0.0 WSW 4.8 0.0 879.0
12:35 29.8 41.0 1018.2 4.8 WNW 9.7 0.0 877.0
12:40 29.7 45.0 1018.1 1.6 NW 9.7 0.0 872.0
12:45 29.7 44.0 1018.0 1.6 WSW 8.0 0.0 870.0
12:50 29.7 43.0 1018.0 0.0 W 8.0 0.0 867.0
12:55 29.8 46.0 1018.0 0.0 N 8.0 0.0 863.0
13:00 29.7 46.0 1018.0 3.2 NNE 8.0 0.0 853.0
13:05 29.8 47.0 1017.8 0.0 N 8.0 0.0 849.0
13:10 29.7 43.0 1017.8 0.0 S 8.0 0.0 847.0
13:15 29.8 45.0 1017.7 3.2 SSW 6.4 0.0 842.0
13:20 30.1 44.0 1017.7 3.2 S 11.3 0.0 837.0
13:25 30.3 42.0 1017.7 3.2 NNE 11.3 0.0 831.0
13:30 30.2 45.0 1017.6 6.4 SSE 9.7 0.0 823.0
13:35 30.1 46.0 1017.5 3.2 NW 8.0 0.0 817.0
13:40 30.1 44.0 1017.4 0.0 WSW 8.0 0.0 814.0
13:45 30.1 41.0 1017.4 0.0 NNW 9.7 0.0 805.0
13:50 30.3 44.0 1017.4 3.2 NW 11.3 0.0 800.0
13:55 30.4 41.0 1017.2 0.0 SSW 11.3 0.0 791.0
14:00 30.4 43.0 1017.2 3.2 S 11.3 0.0 782.0
14:05 30.2 44.0 1017.2 0.0 NW 11.3 0.0 777.0
14:10 30.3 43.0 1017.0 1.6 NW 8.0 0.0 766.0
14:15 30.5 41.0 1017.0 4.8 SW 8.0 0.0 731.0
14:20 30.4 39.0 1017.0 0.0 WNW 9.7 0.0 751.0
14:25 30.4 41.0 1016.9 0.0 SSW 9.7 0.0 737.0
14:30 30.6 42.0 1016.9 8.0 SW 9.7 0.0 731.0
14:35 30.6 45.0 1016.8 0.0 SE 9.7 0.0 719.0
14:40 30.7 42.0 1016.6 1.6 W 9.7 0.0 712.0
14:45 30.7 43.0 1016.7 6.4 NNE 6.4 0.0 701.0
14:50 30.6 41.0 1016.6 0.0 WNW 14.5 0.0 687.0
14:55 30.7 39.0 1016.5 1.6 SSW 14.5 0.0 679.0
15:00 30.9 47.0 1016.4 3.2 NNW 6.4 0.0 670.0
15:05 31.0 44.0 1016.5 6.4 NW 8.0 0.0 654.0
15:10 30.9 38.0 1016.4 0.0 WSW 8.0 0.0 517.0
15:15 30.9 41.0 1016.4 0.0 NNW 8.0 0.0 118.0
15:20 30.8 39.0 1016.3 0.0 NNW 6.4 0.0 72.0
15:25 30.8 40.0 1016.2 4.8 NW 8.0 0.0 83.0
15:30 30.9 44.0 1016.1 1.6 NW 9.7 0.0 364.0
15:35 30.9 44.0 1016.1 4.8 NW 9.7 0.0 534.0
15:40 30.8 46.0 1016.0 0.0 NNW 9.7 0.0 316.0
15:45 30.8 49.0 1016.1 0.0 NE 6.4 0.0 209.0
15:50 30.8 42.0 1016.0 3.2 NW 8.0 0.0 397.0
15:55 30.7 43.0 1015.9 0.0 NNW 8.0 0.0 515.0
16:00 30.8 47.0 1015.9 1.6 WSW 8.0 0.0 485.0
16:05 30.9 45.0 1015.8 0.0 SW 8.0 0.0 396.0
16:10 30.7 48.0 1015.8 6.4 SSW 9.7 0.0 260.0
16:15 30.3 47.0 1015.7 4.8 S 9.7 0.0 141.0
16:20 29.9 47.0 1015.7 4.8 S 16.1 0.0 81.0
16:25 29.7 48.0 1015.8 1.6 SW 16.1 0.0 69.0
16:30 29.4 48.0 1015.7 3.2 SW 12.9 0.0 65.0
16:35 29.4 49.0 1015.7 0.0 S 12.9 0.0 63.0
16:40 29.3 49.0 1015.7 1.6 S 11.3 0.0 62.0
16:45 29.1 48.0 1015.7 8.0 S 12.9 0.0 62.0
Màxima 31.0 97.0 1020.8 8.0 S 16.1 0.0 882.0
Mínima 13.7 38.0 1015.7
Total 0.0